Home   Weather   Nowra   Past weeks
Flag for Australia

Past Weather in Nowra, New South Wales, Australia — Yesterday and Last 2 Weeks

Now
63 °F

Passing clouds.


Feels Like: 63 °F
Forecast: 71 / 62 °F
Wind: 7 mph from South

Location: Nowra Ran Air Station

Current Time: Apr 23, 2019 at 4:16:07 am

Latest Report: Apr 23, 2019 at 3:00 am


Visibility: N/A

Pressure: 30.30 "Hg

Humidity: 94%

Dew Point: 61 °F

Location of NowraLocation

Past Weather in Nowra — Graph

°F

Nowra Temperature Yesterday

Maximum temperature yesterday: 79 °F (at 1:00 pm)
Minimum temperature yesterday: 59 °F (at 12:00 am)
Average temperature yesterday: 67 °F

High & Low Weather Summary for the Past Weeks

 TemperatureHumidityPressure
High88 °F (Apr 8, 1:00 pm)100% (Apr 11, 11:00 pm)30.39 "Hg (Apr 11, 11:00 pm)
Low46 °F (Apr 10, 6:00 am)19% (Apr 8, 1:00 pm)29.77 "Hg (Apr 9, 6:00 am)
Average64 °F77%30.21 "Hg
* Reported Apr 8 3:00 am — Apr 23 3:00 am, Nowra. Weather by CustomWeather, © 2019

Note: Actual official high and low records may vary slightly from our data, if they occured in-between our weather recording intervals... More about our weather records

Advertising

Nowra Weather History for the Previous 24 Hours

Scroll right to see more
 ConditionsComfort  
Time TempWeatherWind HumidityBarometerVisibility
3:00 am
Tue, Apr 23
63 °FPassing clouds.7 mph94%30.30 "HgN/A
2:00 am64 °FMostly cloudy.12 mph88%30.30 "HgN/A
1:00 am64 °FPassing clouds.12 mph94%30.30 "HgN/A
12:00 am64 °FClear.10 mph94%30.30 "HgN/A
11:00 pm
Mon, Apr 22
64 °FClear.9 mph94%30.30 "HgN/A
10:00 pm66 °FPassing clouds.10 mph94%30.30 "HgN/A
9:18 pm66 °FPartly cloudy.12 mph94%30.30 "HgN/A
9:00 pm66 °FPartly cloudy.9 mph100%30.27 "Hg3 mi
8:30 pm66 °FPartly cloudy.9 mph94%30.27 "Hg3 mi
8:14 pm66 °FPartly cloudy.10 mph94%30.27 "Hg4 mi
7:00 pm68 °FPassing clouds.13 mph88%30.24 "HgN/A
6:00 pm68 °FOvercast.12 mph94%30.21 "HgN/A
5:00 pm70 °FScattered clouds.12 mph83%30.18 "HgN/A
4:00 pm72 °FScattered clouds.16 mph78%30.15 "HgN/A
3:00 pm75 °FSunny.10 mph61%30.15 "HgN/A
2:00 pm77 °FSunny.10 mph57%30.15 "HgN/A
1:00 pm79 °FSunny.9 mph51%30.15 "HgN/A
12:00 pm77 °FSunny.6 mph51%30.15 "HgN/A
11:00 am77 °FSunny.2 mph54%30.18 "HgN/A
10:00 am73 °FSunny.8 mph65%30.18 "HgN/A
9:00 am68 °FSunny.No wind94%30.18 "HgN/A
8:00 am63 °FSunny.1 mph100%30.18 "HgN/A
7:00 am59 °FSunny.No wind100%30.15 "HgN/A
6:00 am59 °FClear.No wind100%30.12 "HgN/A
5:00 am59 °FClear.No wind100%30.12 "HgN/A
4:00 am59 °FClear.No wind100%30.12 "HgN/A
Weather by CustomWeather, © 2019

See weather overview